Regional Weather Roundup
Issued by NWS Columbia, SC

Home | Current Version | Previous Version | Text Only | Print | Product List | Glossary On
Versions: 1 2 3 4 5 6 7 8 9 10 11 12 13 14 15 16 17 18 19 20 21 22 23 24 25 26 27 28 29 30 31 32 33 34 35 36 37 38 39 40 41 42 43 44 45 46 47 48 49 50
000
ASUS42 KCAE 111210
RWRCAE
REGIONAL WEATHER ROUNDUP
NATIONAL WEATHER SERVICE COLUMBIA SC
700 AM EST MON DEC 11 2017

NOTE: "FAIR" INDICATES FEW OR NO CLOUDS BELOW 12,000 FEET WITH NO
SIGNIFICANT WEATHER AND/OR OBSTRUCTIONS TO VISIBILITY.

NOT ALL STATIONS ARE QUALITY CONTROLLED BY THE NATIONAL
WEATHER SERVICE. USE DATA WITH CAUTION...ESPECIALLY
DEWPOINT OBSERVATIONS.

SCZ001>056-GAZ040-063>065-077-111300-
...UPSTATE SOUTH CAROLINA...

CITY           SKY/WX    TMP DP  RH WIND       PRES   REMARKS
ANDERSON       CLEAR     31  26  82 CALM      30.15R
6HR MIN TEMP:  30; 6HR MAX TEMP:  38;

LIBERTY        SUNNY     26  25  96 CALM      30.12S
6HR MIN TEMP:  25; 6HR MAX TEMP:  32;

SPARTANBURG    CLEAR     30  23  74 W3        30.12S
CLEMSON        CLEAR     33  27  78 SE3       30.15R
6HR MIN TEMP:  32; 6HR MAX TEMP:  36;

GREENVILLE     CLEAR     30  24  78 CALM      30.13R
6HR MIN TEMP:  30; 6HR MAX TEMP:  35;

GREENWOOD      CLEAR     28  26  92 CALM      30.17R
6HR MIN TEMP:  27; 6HR MAX TEMP:  36;

GREER          CLEAR     29  25  85 SW3       30.13S
6HR MIN TEMP:  28; 6HR MAX TEMP:  32;

ROCK HILL      CLEAR     26  23  88 SW3       30.13S
6HR MIN TEMP:  25; 6HR MAX TEMP:  31;

CHESTER        SUNNY     28  27  93 CALM      30.14S
LAURENS        SUNNY     30  27  86 SW9       30.15S WCI  22


...CENTRAL SOUTH CAROLINA...

CITY           SKY/WX    TMP DP  RH WIND       PRES   REMARKS
COLUMBIA APT   CLEAR     31  28  89 CALM      30.17R
6HR MIN TEMP:  28; 6HR MAX TEMP:  35;

COLUMBIA OWENS CLEAR     30  27  88 CALM      30.19R
6HR MIN TEMP:  29; 6HR MAX TEMP:  35;

MCENTIRE ANGB  CLEAR     27  25  93 NW3       30.17S
6HR MIN TEMP:  26; 6HR MAX TEMP:  34;

ORANGEBURG     CLEAR     30  26  85 SW3       30.18R
6HR MIN TEMP:  30; 6HR MAX TEMP:  36;

SUMTER SHAW    CLEAR     31  25  78 CALM      30.15S
6HR MIN TEMP:  31; 6HR MAX TEMP:  35;

NEWBERRY       SUNNY     32  28  86 W5        30.19R WCI  27
AIKEN          FAIR      32  28  86 SW7       30.20S WCI  26
BARNWELL         N/A     32  28  86 CALM      30.20R
MANNING        FAIR      30  28  93 MISG      30.19R
CAMDEN         FAIR      28  25  86 CALM      30.17S
LANCASTER      SUNNY     27  27 100 CALM      30.15R
WINNSBORO      SUNNY     32  28  86 SW6       30.15S WCI  26


...EASTERN AND COASTAL SOUTH CAROLINA...

CITY           SKY/WX    TMP DP  RH WIND       PRES   REMARKS
MYRTLE BEACH   CLEAR     33  29  85 W5        30.20R WCI  29
6HR MIN TEMP:  33; 6HR MAX TEMP:  38;

N MYRTLE BCH   CLEAR     35  29  78 W5        30.18R WCI  31
6HR MIN TEMP:  35; 6HR MAX TEMP:  40;

CONWAY         FAIR      30  30 100 CALM      30.19S
MARION         FAIR      32  28  86 SW3       30.18S
HARTSVILLE     FAIR      27  25  93 CALM      30.16R
FLORENCE       CLEAR     30  27  88 CALM      30.17S
6HR MIN TEMP:  29; 6HR MAX TEMP:  34;

DARLINGTON     PTCLDY    25  24  96 CALM      30.18R
6HR MIN TEMP:  25; 6HR MAX TEMP:  33;

CHARLESTON APT CLEAR     33  27  78 SW5       30.20R WCI  29
6HR MIN TEMP:  32; 6HR MAX TEMP:  37;

MOUNT PLEASANT FAIR      37  30  75 W3        30.20S
WALTERBORO     SUNNY     30  28  93 CALM      30.21R
BEAUFORT       CLEAR     33  30  88 SW7       30.22R WCI  27
6HR MIN TEMP:  33; 6HR MAX TEMP:  40;



...EASTERN GEORGIA...

CITY           SKY/WX    TMP DP  RH WIND       PRES   REMARKS
AUGUSTA BUSH F CLEAR     33  27  78 W5        30.19R WCI  29
6HR MIN TEMP:  26; 6HR MAX TEMP:  36;

AUGUSTA DANIEL CLEAR     36  27  69 VRB3      30.18S
6HR MIN TEMP:  36; 6HR MAX TEMP:  39;

THOMSON        CLEAR     32  27  82 NW5       30.23S WCI  27
6HR MIN TEMP:  29; 6HR MAX TEMP:  36;

CLAXTON        FAIR      30  29  97 CALM      30.24R
6HR MIN TEMP:  29; 6HR MAX TEMP:  32;

SYLVANIA       SUNNY     34  31  89 SW5       30.22R WCI  29
6HR MIN TEMP:  31; 6HR MAX TEMP:  35;

STATESBORO     CLEAR     35  27  74 W5        30.23R WCI  31
6HR MIN TEMP:  32; 6HR MAX TEMP:  37;

SAVANNAH       CLEAR     31  28  89 W5        30.25R WCI  26
6HR MIN TEMP:  31; 6HR MAX TEMP:  35;



...SOUTHERN NORTH CAROLINA...

CITY           SKY/WX    TMP DP  RH WIND       PRES   REMARKS
CHARLOTTE      CLEAR     29  24  82 S3        30.12S
6HR MIN TEMP:  27; 6HR MAX TEMP:  32;

MONROE         CLEAR     28  24  85 W5        30.12S WCI  23
6HR MIN TEMP:  27; 6HR MAX TEMP:  32;

WADESBORO      SUNNY     25  22  90 CALM      30.15S
RUTHERFORDTON  CLEAR     25  24  94 CALM      30.12R
ASHEVILLE      CLOUDY    26  20  77 NW7       30.10F WCI  18
6HR MIN TEMP:  22; 6HR MAX TEMP:  33;


$$



USA.gov is the U.S. government's official web portal to all federal, state and local government web resources and services.